Location: Peterborough
(44.3091°N, 78.3197°W)
Time: 07:17:49
(UTC-04:00)

Vanguard 3 - Pass Details

Date: 22 March 2023
Orbit: 507 x 3246 km, 33.4° (Epoch: 04 June)

Event Time Altitude Azimuth Distance (km) Brightness Sun altitude
Rises 10:41:51 0° 276° (W) 6,631 11.4 34.0°
Reaches altitude 10° 10:47:34 10° 267° (W) 5,204 11.0 34.8°
Maximum altitude 10:58:27 28° 217° (SW) 2,987 10.4 36.3°
Drops below altitude 10° 11:05:39 10° 163° (SSE) 3,344 11.3 37.2°
Sets 11:08:27 0° 151° (SSE) 3,974 11.6 37.5°
